Wise, VA

7:09 AM EDT on October 17, 2019 (GMT -0400)
Lonesome Pine

Weather History for KLNP - August, 2019

Change the Weather History Date:

Friday, August 23, 2019

  Actual Average Record
Temperature  
Mean Temperature 70 °F -  
Max Temperature 78 °F 78 °F 91 °F (2007)
Min Temperature 62 °F 59 °F 50 °F (1997)
Cooling Degree Days 5    
Growing Degree Days 20 (Base 50)    
Moisture  
Dew Point 67 °F    
Average Humidity 90    
Maximum Humidity 100    
Minimum Humidity 57    
Precipitation  
Precipitation 0.06 in - - ()
Sea Level Pressure  
Sea Level Pressure 30.13 in    
Wind  
Wind Speed 7 mph (WNW)    
Max Wind Speed 14 mph    
Max Gust Speed 18 mph    
Visibility 8 miles    
Events Fog , Rain , Thunderstorm    
Averages and records for this station are not official NWS values.
T = Trace of Precipitation, MM = Missing Value Source: NWS Daily Summary

Daily Weather History Graph

Daily Weather History Graph

Search for Another Location

Airport or City:

Astronomy

Aug. 23, 2019 Rise Set
Actual Time 6:53 AM EDT 8:11 PM EDT
Civil Twilight 6:26 AM EDT 8:38 PM EDT
Nautical Twilight 5:53 AM EDT 9:10 PM EDT
Astronomical Twilight 5:20 AM EDT 9:44 PM EDT
Moon 12:12 AM EDT (8/23) 2:18 PM EDT (8/23)
Length of Visible Light 14h 12m
Length of Day
13h 18m
Waning Gibbous, 50% of the Moon is Illuminated
Aug 23
Waning Gibbous
Aug 30
New
Sep 5
First Quarter
Sep 14
Full
Sep 21
Last Quarter

Hourly Weather History & Observations

Time (EDT) Temp. Dew Point Humidity Pressure Visibility Wind Dir Wind Speed Gust Speed Precip Events Conditions
12:15 AM 69.8 °F 69.8 °F 100% 30.11 in 10.0 mi South 4.6 mph - N/A Rain , Thunderstorm Light Thunderstorms and Rain
12:35 AM 71.6 °F 66.2 °F 83% 30.11 in 10.0 mi South 5.8 mph - N/A   Scattered Clouds
12:55 AM 69.8 °F 68.0 °F 94% 30.12 in 10.0 mi South 11.5 mph 18.4 mph N/A   Scattered Clouds
1:15 AM 69.8 °F 69.8 °F 100% 30.11 in 10.0 mi SW 4.6 mph - N/A   Scattered Clouds
1:35 AM 69.8 °F 69.8 °F 100% 30.11 in 10.0 mi SW 4.6 mph - N/A   Mostly Cloudy
1:55 AM 69.8 °F 69.8 °F 100% 30.11 in 10.0 mi SSW 6.9 mph - N/A   Overcast
2:15 AM 69.8 °F 69.8 °F 100% 30.11 in 10.0 mi SW 4.6 mph - N/A   Overcast
2:35 AM 68.0 °F 68.0 °F 100% 30.10 in 10.0 mi SSW 4.6 mph - N/A   Overcast
2:55 AM 68.0 °F 68.0 °F 100% 30.10 in 10.0 mi WSW 5.8 mph - N/A   Overcast
3:15 AM 68.0 °F 68.0 °F 100% 30.11 in 10.0 mi SSW 6.9 mph - N/A Rain Light Rain
3:35 AM 68.0 °F 68.0 °F 100% 30.11 in 7.0 mi SSW 5.8 mph - N/A Rain Light Rain
3:55 AM 68.0 °F 68.0 °F 100% 30.11 in 7.0 mi SW 9.2 mph - 0.02 in Rain Rain
4:15 AM 68.0 °F 68.0 °F 100% 30.10 in 10.0 mi SW 10.4 mph - 0.01 in Rain Rain
4:35 AM 68.0 °F 68.0 °F 100% 30.09 in 10.0 mi SSW 6.9 mph - 0.03 in Rain Rain
4:55 AM 68.0 °F 68.0 °F 100% 30.09 in 10.0 mi SSW 4.6 mph - 0.04 in   Mostly Cloudy
5:15 AM 68.0 °F 68.0 °F 100% 30.10 in 10.0 mi SSW 5.8 mph - N/A   Mostly Cloudy
5:35 AM 68.0 °F 68.0 °F 100% 30.11 in 10.0 mi WSW 5.8 mph - N/A   Mostly Cloudy
5:55 AM 68.0 °F 68.0 °F 100% 30.11 in 10.0 mi SW 5.8 mph - N/A   Overcast
6:15 AM 68.0 °F 68.0 °F 100% 30.11 in 10.0 mi SW 5.8 mph - N/A   Overcast
6:35 AM 68.0 °F 68.0 °F 100% 30.12 in 10.0 mi SW 8.1 mph - N/A   Overcast
6:55 AM 68.0 °F 68.0 °F 100% 30.12 in 10.0 mi SW 6.9 mph - N/A   Overcast
7:15 AM 68.0 °F 68.0 °F 100% 30.12 in 10.0 mi SW 6.9 mph - N/A   Overcast
7:35 AM 68.0 °F 68.0 °F 100% 30.14 in 10.0 mi SW 5.8 mph - N/A   Overcast
7:55 AM 68.0 °F 68.0 °F 100% 30.14 in 10.0 mi WSW 5.8 mph - N/A   Overcast
8:35 AM 68.0 °F 68.0 °F 100% 30.14 in 10.0 mi WSW 8.1 mph - N/A   Overcast
8:55 AM 69.8 °F 69.8 °F 100% 30.15 in 10.0 mi SW 8.1 mph - N/A   Overcast
9:20 AM 69.8 °F 69.8 °F 100% 30.15 in 10.0 mi SW 6.9 mph - N/A   Overcast
9:30 AM 71.6 °F 71.6 °F 100% 30.15 in 10.0 mi WSW 8.1 mph - N/A   Overcast
9:55 AM 71.6 °F 69.8 °F 94% 30.15 in 10.0 mi SW 10.4 mph - N/A   Mostly Cloudy
10:15 AM 73.4 °F 68.0 °F 83% 30.16 in 10.0 mi West 9.2 mph - N/A   Overcast
10:55 AM 73.4 °F 68.0 °F 83% 30.15 in 10.0 mi West 8.1 mph - N/A   Mostly Cloudy
11:15 AM 73.4 °F 66.2 °F 78% 30.15 in 10.0 mi West 8.1 mph - N/A   Overcast
11:35 AM 73.4 °F 66.2 °F 78% 30.16 in 10.0 mi WNW 6.9 mph - N/A   Overcast
11:55 AM 73.4 °F 64.4 °F 73% 30.16 in 10.0 mi NW 6.9 mph - N/A   Overcast
12:15 PM 73.4 °F 66.2 °F 78% 30.16 in 10.0 mi West 3.5 mph - N/A   Overcast
12:35 PM 73.4 °F 64.4 °F 73% 30.16 in 10.0 mi NW 8.1 mph - N/A   Overcast
12:55 PM 75.2 °F 64.4 °F 69% 30.16 in 10.0 mi WNW 9.2 mph - N/A   Overcast
1:35 PM 77.0 °F 62.6 °F 61% 30.15 in 10.0 mi NW 6.9 mph - N/A   Overcast
1:55 PM 77.0 °F 64.4 °F 65% 30.15 in 10.0 mi WNW 3.5 mph - N/A   Overcast
2:15 PM 77.0 °F 62.6 °F 61% 30.14 in 10.0 mi WNW 6.9 mph - N/A   Overcast
2:35 PM 77.0 °F 64.4 °F 65% 30.14 in 10.0 mi NNW 6.9 mph - N/A   Overcast
2:55 PM 78.8 °F 62.6 °F 57% 30.13 in 10.0 mi WNW 9.2 mph - N/A   Mostly Cloudy
3:15 PM 78.8 °F 62.6 °F 57% 30.13 in 10.0 mi West 5.8 mph - N/A   Scattered Clouds
3:35 PM 78.8 °F 64.4 °F 61% 30.12 in 10.0 mi North 9.2 mph 17.3 mph N/A   Mostly Cloudy
3:55 PM 78.8 °F 66.2 °F 65% 30.12 in 10.0 mi North 9.2 mph - N/A   Scattered Clouds
4:15 PM 78.8 °F 66.2 °F 65% 30.12 in 10.0 mi North 10.4 mph - N/A   Mostly Cloudy
4:35 PM 77.0 °F 66.2 °F 69% 30.12 in 10.0 mi North 13.8 mph - N/A   Mostly Cloudy
4:55 PM 75.2 °F 66.2 °F 73% 30.13 in 10.0 mi North 11.5 mph - N/A   Overcast
5:15 PM 73.4 °F 66.2 °F 78% 30.12 in 10.0 mi NNE 10.4 mph - N/A   Overcast
5:35 PM 71.6 °F 64.4 °F 78% 30.13 in 10.0 mi North 6.9 mph - N/A   Overcast
5:55 PM 71.6 °F 64.4 °F 78% 30.13 in 10.0 mi North 5.8 mph - N/A   Overcast
6:15 PM 69.8 °F 68.0 °F 94% 30.13 in 10.0 mi NNW 5.8 mph - N/A   Overcast
6:35 PM 69.8 °F 68.0 °F 94% 30.12 in 10.0 mi North 5.8 mph - N/A   Overcast
6:55 PM 69.8 °F 69.8 °F 100% 30.12 in 10.0 mi North 5.8 mph - N/A   Overcast
7:15 PM 68.0 °F 68.0 °F 100% 30.12 in 10.0 mi North 6.9 mph - N/A   Overcast
7:35 PM 68.0 °F 68.0 °F 100% 30.13 in 4.0 mi North 6.9 mph - N/A   Overcast
7:55 PM 66.2 °F 66.2 °F 100% 30.14 in 1.8 mi North 6.9 mph - N/A   Overcast
8:15 PM 66.2 °F 66.2 °F 100% 30.14 in 5.0 mi North 6.9 mph - N/A   Overcast
8:40 PM 64.4 °F 64.4 °F 100% 30.15 in 0.2 mi North 9.2 mph - N/A Fog Fog
8:50 PM 64.4 °F 64.4 °F 100% 30.16 in 0.2 mi North 6.9 mph - N/A Fog Fog
9:40 PM 64.4 °F 64.4 °F 100% 30.16 in 0.2 mi NNE 6.9 mph - N/A Fog Fog
9:55 PM 64.4 °F 64.4 °F 100% 30.17 in 0.2 mi NNE 5.8 mph - N/A Fog Fog
10:15 PM 64.4 °F 64.4 °F 100% 30.18 in 0.2 mi North 6.9 mph - N/A Fog Fog
10:35 PM 64.4 °F 64.4 °F 100% 30.18 in 0.2 mi NNE 6.9 mph - N/A Fog Fog
10:55 PM 62.6 °F 62.6 °F 100% 30.18 in 0.2 mi North 4.6 mph - N/A Fog Fog
11:15 PM 62.6 °F 62.6 °F 100% 30.18 in 0.2 mi North 5.8 mph - N/A Fog Fog
11:35 PM 62.6 °F 62.6 °F 100% 30.17 in 0.2 mi NNE 8.1 mph - N/A Fog Fog
11:55 PM 62.6 °F 62.6 °F 100% 30.17 in 0.2 mi North 3.5 mph - N/A Fog Fog